カタログに戻る

DTUSAT

運用中アマチュア無線SSO
NORAD 27842·PAYLOAD·🇩🇰 Denmark

打ち上げ Jun 30, 2003 から Plesetsk Cosmodrome

Loading…

次のパス (今後24時間)

TLE

最新Source: Space-Track

元期: Sep 14, 2026, 11:28 UTC

1 27842U 03031C   26257.47796585  .00000131  00000-0  76404-4 0  9993
2 27842  98.6884 264.8857 0008065 262.9541  97.0721 14.23963915204528

AllMySatでDTUSATをリアルタイム追跡

Download on the App Store